PulseSat

PulseSat

COSMOS 2492 (754)

Last updated on March 21, 2019, 3:13 a.m. UTC

1 39620U 14012A   19078.58757586 -.00000037  00000-0  10000-3 0  9999
2 39620  65.5955  42.9450 0016488 323.8041 301.7152  2.13103425 38831
UTC
Height (km)
Latitude
Longitude
Inclination
Orbital Period

Next 30 passes for location: Hong Kong

Rise time Rise Azimuth (degrees) Set time Set Azimuth (degrees) Duration Max altitude (degrees)

No matching passes for this satellites

PulseSat

PulseSat is the new satellites software and hardware trackering solution by Pulsely.
Satellite Two Line Element Set source: US Air Force Space Command

Download PulseSat for iOS
© 2017 Pulsely Limited